DMC 3-FM3

Satellite information

Favourite Embed

Satellite Type and Status

PAYLOADIN ORBIT

Key statistics

Satellite DMC 3-FM3 at a glance.

Uptime

3592

Days in orbit

Revolutions

≈ 14.9

Per day

Orbit

SSO

Sun Synchronous Orbit

Inclination

97.7

Latest

Satellite identification and parameters

Extended collection of information and parameters for DMC 3-FM3.

Object identification

Identified? True

Debris? False

Object name: DMC 3-FM3

International designator: 2015-032C

Object number (NORAD): 40717

Object ID (CCSDS): 40717

Country: UNITED KINGDOM (UK)

Current information (Y/N): Y

RCS size: LARGE

Orbital parameters

Period: 96.933 minutes

Inclination: 97.7141 deg

SMA: 6989.945 km

Apoapsis: 615.726 km

Periapsis: 607.893 km

RAAN: 7.3914 deg

Eccentricy: 0.0005603

Argument of periapsis: 293.7395 deg

Mean anomaly: 66.3233 deg

Mean motion: 14.85566732 rev/day

Mean motion (dot): 0.00000815 rev/day2

B* drag term: 0.00010025 1/REarth

Two-line elements (TLE)

Creation date: May 10, 2025, 2:32 a.m.

Reference frame: TEME

Reference center: EARTH

Epoch: May 9, 2025, 9:16 p.m. UTC

TLE line 0: 0 DMC 3-FM3

TLE line 1: 1 40717U 15032C 25129.88672854 .00000815 00000-0 10025-3 0 9992

TLE line 2: 2 40717 97.7141 7.3914 0005603 293.7395 66.3233 14.85566732530048

Live tracking on map

Real-time ground track for satellite DMC 3-FM3.

In-orbit conjunctions

There are no conjunctions computed for DMC 3-FM3, at the moment. Check back to stay up to date, as we update our databases every day.

Go to all conjunctions

Associated space launch

The Polar Satellite Launch Vehicle (PSLV), in its thirtieth flight (PSLV-C28), will launch three identical DMC3 optical earth observation satellites. A, B and C. It will also carry two auxiliary satellites from UK. CBNT-1, a technology demonstrator earth observation micro satellite, and De-OrbitSail, a technology demonstrator nano satellite.

DMC 3-FM3 was lifted into orbit during the mission ‘PSLV XL | DMC-3A, DMC-3B, DMC-3C, CBNT-1 & DeOrbitSAIL’, on board a PSLV-XL space rocket.

The launch took place on July 10, 2015, 4:28 p.m. from Satish Dhawan Space Centre First Launch Pad.

For more information about the launch, click the button.

Launch to space PSLV XL | DMC-3A, DMC-3B, DMC-3C, CBNT-1 & DeOrbitSAIL
PSLV XL | DMC-3A, DMC-3B, DMC-3C, CBNT-1 & DeOrbitSAIL

Agency: N/A

Status: Launch Successful

Launch date: July 10, 2015, 4:28 p.m. UTC

Rocket: PSLV-XL

Launch pad: Satish Dhawan Space Centre First Launch Pad

Location: Satish Dhawan Space Centre, India

...

Latest news about this satellite

There are no fresh news available about this satellite. Check back as we update our databases every day.


Newsletter sign-up

Weekly statistics, charts and insights to help you stay on top of the space industry.